GMT,Max TemperatureF,Mean TemperatureF,Min TemperatureF,Max Dew PointF,MeanDew PointF,Min DewpointF,Max Humidity, Mean Humidity, Min Humidity, Max Sea Level PressureIn, Mean Sea Level PressureIn, Min Sea Level PressureIn, Max VisibilityMiles, Mean VisibilityMiles, Min VisibilityMiles, Max Wind SpeedMPH, Mean Wind SpeedMPH, Max Gust SpeedMPH,PrecipitationIn, CloudCover, Events, WindDirDegrees
2014-1-1,51,44,37,50,44,37,100,94,87,29.47,29.16,28.91,6,5,2,26,13,37,0.00,5,Rain,167
2014-1-2,48,44,39,46,42,37,93,89,81,29.36,29.23,28.97,6,6,4,21,11,34,0.00,3,Rain,198
2014-1-3,50,46,41,48,40,37,94,85,71,29.42,29.21,29.12,6,6,3,24,17,44,0.00,4,Rain,203
2014-1-4,42,40,37,43,39,34,100,95,87,29.42,29.27,29.15,6,6,3,13,8,,0.00,4,Rain,205
2014-1-5,53,43,33,52,40,32,100,93,87,29.53,29.39,29.15,6,6,2,24,11,34,0.00,5,Rain,178
2014-1-6,51,48,46,50,44,43,100,83,71,29.33,29.21,29.15,6,6,5,23,15,40,0.00,3,Rain,198
2014-1-7,50,47,44,45,43,41,93,85,71,29.68,29.49,29.33,6,6,3,21,15,31,0.00,4,Rain,207
2014-1-8,50,45,42,48,44,41,100,93,87,29.92,29.78,29.56,6,5,2,15,9,20,0.00,5,Rain,183
2014-1-9,50,44,39,50,40,36,100,86,71,29.86,29.65,29.44,6,6,5,20,11,32,0.00,5,Rain,245
2014-1-10,46,40,33,45,40,34,100,91,87,29.92,29.86,29.83,6,6,2,14,8,26,0.00,4,Rain,199
2014-1-11,46,36,26,45,35,27,100,87,70,30.21,30.05,29.83,6,6,6,14,8,,0.00,3,Rain,249
2014-1-12,46,36,26,46,36,25,100,97,87,30.21,29.91,29.59,6,4,1,17,9,,0.00,7,Rain,152
2014-1-13,46,42,39,43,39,37,100,91,81,29.68,29.58,29.47,6,6,6,14,9,,0.00,4,Rain,184
2014-1-14,42,38,33,41,36,32,100,92,76,29.65,29.59,29.47,6,6,4,16,8,,0.00,5,Rain,212
2014-1-15,51,46,42,48,47,41,100,95,87,29.50,29.37,29.21,6,5,3,15,9,,0.00,6,Rain,187
2014-1-16,48,44,39,45,42,39,100,92,76,29.24,29.14,29.03,6,6,4,16,9,,0.00,5,Rain,165
2014-1-17,46,40,35,43,40,34,100,92,81,29.30,29.16,29.03,6,6,4,13,9,26,0.00,6,Rain,180
2014-1-18,48,42,35,45,43,36,100,94,87,29.30,29.20,29.15,6,6,1,17,11,,0.00,6,Rain,133
2014-1-19,44,37,30,45,37,30,100,90,76,29.53,29.35,29.18,6,6,5,14,8,,0.00,4,Rain,187
2014-1-20,46,36,26,39,34,27,100,93,76,29.86,29.74,29.56,6,5,3,7,3,,0.00,6,Fog,134
2014-1-21,42,35,28,41,36,28,100,95,87,29.86,29.74,29.59,6,3,0,15,8,28,0.00,6,Fog-Rain,146
2014-1-22,48,44,41,45,43,39,100,93,82,29.83,29.68,29.56,6,5,2,13,8,,0.00,6,Rain,207
2014-1-23,46,42,37,41,36,30,100,83,65,29.95,29.86,29.77,6,6,6,17,9,,0.00,4,Rain,254
2014-1-24,44,38,33,45,39,32,100,95,87,29.95,29.87,29.80,6,4,1,15,7,,0.00,8,Rain,157
2014-1-25,50,44,37,46,40,34,100,89,76,29.95,29.84,29.65,6,4,0,33,9,45,0.00,4,Fog-Rain-Thunderstorm,235
2014-1-26,48,42,35,46,36,30,100,85,66,29.95,29.47,29.18,6,5,3,21,11,36,0.00,4,Rain,215
2014-1-27,44,40,35,39,36,30,93,84,76,29.21,29.10,29.03,6,6,6,16,10,,0.00,4,Rain,209
2014-1-28,44,42,41,43,40,39,100,92,87,29.12,28.96,28.91,6,6,4,16,12,23,0.00,6,Rain,163
2014-1-29,41,39,37,39,38,34,93,92,87,29.59,29.37,29.12,6,5,2,14,11,,0.00,7,Rain,84
2014-1-30,37,36,35,37,34,32,100,92,81,29.65,29.61,29.59,4,2,0,12,8,,0.00,7,Fog-Rain-Snow,14
2014-1-31,46,40,33,46,39,34,100,95,93,29.65,29.34,28.97,6,4,1,22,11,,0.00,7,Rain,172